Total_Precipitation_Accumulation
0.41 0.48 0.63 0.50 0.35 0.41 0.51 0.52 0.46 0.42 0.39 0.42 0.44 0.42 0.41 0.44 0.42 0.40 0.41 0.46 0.51 0.54 0.54 0.58 0.56 0.60 0.61 0.56 0.56 0.48 0.43 0.43 0.52 0.60 0.66 0.66 0.73 0.95 1.22 1.28 1.29 0.84 0.79
0.22 0.31 0.50 0.42 0.30 0.36 0.46 0.48 0.45 0.44 0.40 0.42 0.47 0.49 0.56 0.57 0.48 0.43 0.46 0.47 0.48 0.53 0.49 0.44 0.44 0.46 0.50 0.47 0.41 0.36 0.42 0.55 0.68 0.85 0.84 0.72 0.75 0.94 1.12 1.12 1.28 0.78 0.70
0.17 0.21 0.33 0.37 0.30 0.32 0.43 0.46 0.48 0.54 0.55 0.52 0.52 0.55 0.58 0.53 0.48 0.46 0.47 0.44 0.45 0.47 0.40 0.38 0.36 0.34 0.38 0.38 0.39 0.42 0.54 0.72 0.95 1.09 1.20 0.75 0.55 0.85 0.96 0.95 0.86 0.72 0.69
0.19 0.17 0.22 0.29 0.30 0.32 0.42 0.48 0.64 0.65 0.62 0.56 0.57 0.55 0.49 0.46 0.44 0.41 0.43 0.44 0.46 0.42 0.38 0.33 0.30 0.29 0.31 0.31 0.37 0.50 0.65 0.81 1.00 1.34 1.33 0.69 0.42 0.59 0.75 0.77 0.68 0.65 0.61
0.19 0.20 0.24 0.28 0.27 0.38 0.46 0.53 0.59 0.53 0.50 0.50 0.54 0.52 0.50 0.47 0.45 0.43 0.43 0.42 0.43 0.40 0.35 0.29 0.28 0.28 0.29 0.33 0.42 0.56 0.69 0.81 1.08 1.24 0.87 0.77 0.74 0.66 0.61 0.66 0.69 0.65 0.53
0.19 0.23 0.27 0.30 0.32 0.39 0.40 0.43 0.50 0.52 0.47 0.48 0.50 0.52 0.52 0.49 0.50 0.44 0.37 0.36 0.36 0.38 0.34 0.30 0.28 0.29 0.31 0.38 0.45 0.56 0.72 0.92 1.04 0.71 0.60 0.58 0.62 0.69 0.59 0.74 0.84 0.71 0.58
0.24 0.29 0.31 0.38 0.41 0.42 0.39 0.41 0.43 0.46 0.48 0.51 0.50 0.48 0.48 0.45 0.46 0.43 0.35 0.30 0.31 0.34 0.32 0.30 0.29 0.34 0.38 0.44 0.49 0.59 0.75 1.04 0.83 0.54 0.57 0.65 0.62 0.60 0.68 0.90 1.05 0.92 0.76
0.40 0.40 0.44 0.49 0.48 0.48 0.45 0.44 0.43 0.43 0.43 0.41 0.41 0.44 0.41 0.38 0.42 0.45 0.42 0.33 0.31 0.32 0.30 0.29 0.30 0.36 0.44 0.49 0.56 0.61 0.73 0.78 0.47 0.42 0.43 0.52 0.47 0.50 0.72 0.94 1.10 1.08 0.98
0.61 0.49 0.51 0.57 0.58 0.56 0.60 0.54 0.49 0.45 0.44 0.42 0.42 0.43 0.41 0.38 0.37 0.40 0.46 0.42 0.36 0.39 0.36 0.35 0.34 0.37 0.45 0.53 0.56 0.61 0.69 0.70 0.52 0.49 0.45 0.48 0.47 0.66 0.99 1.12 1.13 1.12 1.09
1.03 0.82 0.75 0.66 0.61 0.59 0.59 0.59 0.57 0.52 0.46 0.45 0.45 0.41 0.44 0.43 0.42 0.46 0.44 0.46 0.46 0.49 0.53 0.49 0.47 0.47 0.49 0.51 0.57 0.63 0.65 0.61 0.61 0.57 0.53 0.43 0.54 0.82 1.14 1.28 1.29 1.24 1.14
1.30 1.12 0.91 0.74 0.69 0.71 0.63 0.60 0.66 0.63 0.58 0.57 0.59 0.55 0.63 0.75 0.69 0.75 0.64 0.71 0.69 0.71 0.76 0.75 0.76 0.77 0.72 0.62 0.72 0.80 0.69 0.71 0.75 0.67 0.53 0.45 0.63 0.93 1.22 1.35 1.35 1.32 1.21
1.40 1.19 1.05 0.88 0.76 0.70 0.67 0.77 0.98 0.81 0.80 0.88 0.98 0.98 1.16 1.35 1.32 0.87 0.90 1.15 1.21 1.27 1.26 1.26 1.27 1.08 0.92 0.86 1.27 1.46 0.86 0.82 0.87 0.77 0.65 0.69 0.94 1.20 1.45 1.41 1.32 1.34 1.22
1.66 1.46 1.26 1.08 0.91 0.84 0.98 0.90 1.02 1.14 1.22 1.25 1.27 1.27 1.44 1.36 1.16 0.99 1.11 1.37 1.61 1.67 1.56 1.74 1.79 1.45 1.51 1.75 1.76 1.58 1.11 1.21 1.20 1.09 0.96 1.10 1.32 1.62 2.00 1.80 1.49 1.34 1.27
1.83 1.71 1.67 1.44 1.28 1.35 1.29 1.03 0.97 1.02 1.12 1.28 1.52 1.48 1.56 1.75 1.64 1.58 1.63 1.67 1.80 2.00 2.24 2.19 2.35 2.20 2.12 1.99 1.98 1.86 1.62 1.63 1.58 1.68 1.62 1.47 1.55 1.82 2.29 2.26 1.82 1.52 1.35
2.01 1.95 1.94 1.90 1.73 1.80 1.62 1.42 1.23 1.35 1.35 1.41 1.55 1.68 1.63 1.85 2.00 2.00 1.95 1.93 1.83 1.91 2.08 2.27 2.31 2.66 2.77 2.40 2.02 1.89 1.88 1.95 1.86 1.84 1.75 1.67 1.61 1.74 2.11 2.35 2.20 1.96 1.65
2.38 2.39 2.21 2.17 2.16 2.14 2.06 2.02 1.94 1.72 1.74 1.67 1.64 1.64 1.67 1.89 2.12 2.23 2.10 2.07 1.94 1.90 2.05 2.24 2.41 2.89 2.92 2.73 2.30 2.06 1.98 1.94 1.77 1.71 1.78 1.95 1.78 1.67 1.80 2.09 2.30 2.27 2.11
2.82 2.83 2.82 2.78 2.91 2.84 2.66 2.51 2.33 2.17 2.00 1.97 2.02 2.02 1.92 1.94 2.13 2.14 1.98 1.88 1.92 2.06 2.23 2.26 2.41 2.72 2.49 2.46 2.26 2.11 1.90 1.71 1.54 1.48 1.65 1.83 1.71 1.65 1.78 1.93 2.12 2.21 2.31
3.09 3.21 3.35 3.37 3.37 3.22 3.18 3.09 2.84 2.62 2.45 2.28 2.21 2.26 2.09 2.01 2.03 2.18 1.99 1.83 2.13 2.19 2.28 2.50 2.64 2.66 2.61 2.61 2.38 2.06 1.82 1.69 1.37 1.27 1.29 1.39 1.58 1.39 1.64 1.87 1.92 1.98 2.22
3.55 3.78 3.93 3.94 3.80 3.54 3.55 3.51 3.35 3.17 2.83 2.47 2.31 2.23 2.08 2.01 2.10 2.35 2.31 2.39 2.47 2.50 2.51 2.39 2.68 2.71 2.61 2.60 2.30 2.03 1.66 1.47 1.28 1.13 1.07 1.03 1.17 1.25 1.34 1.47 1.62 1.71 2.08
4.09 4.46 4.26 4.14 4.30 4.17 4.00 3.82 3.54 3.10 2.70 2.55 2.47 2.29 2.15 2.13 2.21 2.55 2.39 2.39 2.49 2.62 2.65 2.57 2.58 2.60 2.35 2.32 2.14 1.90 1.52 1.19 1.10 1.02 0.89 0.86 0.90 0.86 1.03 1.26 1.49 1.33 1.68
4.14 4.52 4.66 4.64 4.51 4.26 3.83 3.49 3.24 3.02 2.87 2.62 2.44 2.36 2.22 2.10 2.20 2.52 2.40 2.53 2.51 2.52 2.53 2.54 2.55 2.40 2.03 2.23 2.32 1.89 1.41 1.09 1.07 0.85 0.76 0.79 0.80 0.79 0.98 1.26 1.43 1.42 1.35
3.80 4.26 4.54 4.68 4.55 4.15 3.69 3.45 3.30 3.23 2.88 2.58 2.53 2.54 2.36 2.37 2.36 2.36 2.45 2.42 2.46 2.55 2.47 2.41 2.46 2.28 1.91 2.05 2.23 2.28 1.69 1.30 1.00 0.71 0.77 0.87 0.95 1.02 1.05 1.15 1.30 1.42 1.41
3.34 3.65 3.77 3.91 3.87 3.69 3.67 3.65 3.55 3.48 3.03 2.85 2.82 2.78 2.63 2.58 2.52 2.49 2.44 2.34 2.27 2.15 2.13 2.19 2.21 2.19 2.02 1.93 2.11 2.39 1.97 1.50 1.24 0.87 0.81 0.88 1.08 1.28 1.25 1.27 1.27 1.41 1.54
2.88 3.23 3.46 3.51 3.45 3.34 3.41 3.41 3.26 3.04 2.85 2.93 3.16 3.10 2.83 2.58 2.38 2.14 2.00 2.05 2.04 1.94 1.90 1.70 1.75 1.87 1.81 1.67 1.81 1.90 1.93 1.95 1.86 1.26 0.90 0.84 1.01 1.17 1.29 1.20 1.18 1.32 1.52
2.50 2.78 3.03 3.29 3.36 3.29 3.31 3.22 3.19 3.06 3.04 3.05 2.97 2.87 2.63 2.39 2.07 1.77 1.67 1.75 1.76 1.69 1.60 1.52 1.61 1.54 1.47 1.45 1.61 1.78 1.85 1.92 1.90 1.76 1.36 1.25 1.21 1.07 1.09 1.13 1.25 1.33 1.38
2.14 2.25 2.39 2.59 2.86 3.00 3.03 3.00 2.99 2.91 2.86 2.77 2.59 2.39 2.19 2.01 1.74 1.49 1.38 1.49 1.59 1.62 1.58 1.53 1.57 1.45 1.44 1.53 1.52 1.59 1.78 1.76 1.78 1.89 1.62 1.47 1.38 1.11 1.09 1.19 1.24 1.40 1.46